Location: Cahas Mountain Overlook
(37.0833°N, 80.1000°W)
Time: 18:58:05
(UTC-05:00)

Vanguard 3 - Pass Details

Date: 09 December 2023
Orbit: 508 x 3239 km, 33.4° (Epoch: 23 February)

Event Time Altitude Azimuth Distance (km) Brightness Sun altitude
Rises 17:08:46 0° 199° (SSW) 7,141 12.8 -1.8°
Reaches altitude 10° 17:15:14 10° 187° (S) 6,160 12.1 -3.0°
Maximum altitude 17:28:34 23° 143° (SE) 4,751 10.9 -5.3°
Drops below altitude 10° 17:39:34 10° 99° (E) 5,080 10.7 -7.4°
Enters shadow 17:42:19 - 90° (E) 5,421 10.8 -7.9°
